| time (UTC) | temp F | wind direction | speed MPH | gust MPH | rain 1hr in | rain 24hr in | rain mn in | humidity % | barometer mb |
| 20260506124005 | 47 | 338 | 2.0 | 7.0 | 0.00 | 1.03 | 1.03 | 17 | 1016.8 |
| 20260506123006 | 47 | 0 | 3.0 | 8.0 | 0.00 | 1.03 | 1.03 | 17 | 1016.7 |
| 20260506115006 | 46 | 315 | 2.0 | 13.0 | 0.73 | 1.03 | 1.03 | 17 | 1016.2 |
| 20260506114006 | 48 | 270 | 4.0 | 13.0 | 0.73 | 1.03 | 1.03 | 17 | 1016.2 |
| 20260506113005 | 35 | 270 | 3.0 | 10.0 | 0.73 | 1.03 | 1.03 | 17 | 994.5 |
| 20260506112006 | 49 | 270 | 3.0 | 7.0 | 0.74 | 1.03 | 1.03 | 17 | 1016.0 |
| 20260506105006 | 49 | 270 | 2.0 | 7.0 | 0.74 | 1.03 | 1.03 | 17 | 1015.6 |
| 20260506104005 | 49 | 45 | 3.0 | 10.0 | 0.74 | 1.03 | 1.03 | 17 | 1015.3 |
| 20260506103005 | 36 | 225 | 3.0 | 13.0 | 0.74 | 1.03 | 1.03 | 17 | 995.8 |
| 20260506102005 | 46 | 0 | 3.0 | 13.0 | 0.77 | 1.03 | 1.03 | 17 | 1015.2 |
| 20260506101005 | 45 | 90 | 2.0 | 8.0 | 0.77 | 1.03 | 1.03 | 17 | 1015.0 |
| 20260506094005 | 46 | 0 | 3.0 | 8.0 | 0.77 | 1.03 | 1.03 | 17 | 1014.7 |
| 20260506093007 | 36 | 270 | 3.0 | 8.0 | 0.77 | 1.03 | 1.03 | 17 | 996.7 |
| 20260506092006 | 43 | 225 | 2.0 | 8.0 | 0.00 | 1.03 | 1.03 | 17 | 1014.2 |
| 20260506091006 | 43 | 225 | 5.0 | 15.0 | 0.00 | 1.03 | 1.03 | 17 | 1014.3 |
| 20260506085006 | 43 | 45 | 2.0 | 13.0 | 0.00 | 1.03 | 1.03 | 17 | 1014.1 |
| 20260506084006 | 43 | 45 | 3.0 | 9.0 | 0.00 | 1.03 | 1.03 | 17 | 1013.9 |
| 20260506083006 | 44 | 225 | 2.0 | 6.0 | 0.00 | 1.03 | 1.03 | 17 | 1013.8 |
| 20260506082005 | 43 | 135 | 1.0 | 8.0 | 0.00 | 1.03 | 1.03 | 17 | 1013.8 |
| 20260506081006 | 43 | 270 | 1.0 | 7.0 | 0.00 | 1.03 | 1.03 | 17 | 1013.5 |
| 20260506073006 | 45 | 270 | 1.0 | 8.0 | 0.00 | 1.03 | 1.03 | 17 | 1013.0 |
| 20260506072006 | 45 | 135 | 2.0 | 6.0 | 0.00 | 1.03 | 1.03 | 17 | 1012.8 |
| 20260506071006 | 47 | 225 | 2.0 | 7.0 | 0.00 | 1.03 | 1.03 | 17 | 1012.6 |
| 20260506062006 | 44 | 180 | 1.0 | 6.0 | 0.00 | 1.03 | 1.03 | 17 | 1011.9 |
| 20260506061006 | 45 | 90 | 1.0 | 6.0 | 0.00 | 1.03 | 1.03 | 17 | 1011.7 |
| 20260506051005 | 45 | 45 | 2.0 | 6.0 | 0.84 | 1.03 | 1.03 | 17 | 1010.8 |
| 20260506045006 | 44 | 0 | 3.0 | 10.0 | 0.84 | 1.03 | 1.03 | 17 | 1010.5 |
| 20260506044006 | 44 | 90 | 3.0 | 10.0 | 0.84 | 1.03 | 1.03 | 17 | 1010.4 |
| 20260506035005 | 41 | 45 | 2.0 | 13.0 | 0.00 | 1.03 | 1.03 | 17 | 1010.1 |
| 20260506034006 | 41 | 0 | 3.0 | 12.0 | 0.00 | 1.03 | 1.03 | 17 | 1009.7 |
| 20260506033006 | 40 | 270 | 3.0 | 12.0 | 0.00 | 1.03 | 1.03 | 17 | 1009.7 |
| 20260506032005 | 40 | 45 | 4.0 | 9.0 | 0.00 | 1.03 | 1.03 | 17 | 1009.7 |
| 20260506025006 | 39 | 45 | 5.0 | 13.0 | 0.00 | 1.03 | 1.03 | 17 | 1009.6 |
| 20260506024006 | 39 | 45 | 5.0 | 12.0 | 0.00 | 1.03 | 1.03 | 17 | 1009.6 |
| 20260506023005 | 38 | 45 | 3.0 | 13.0 | 0.00 | 1.03 | 1.03 | 17 | 1009.6 |
| 20260506022005 | 39 | 0 | 5.0 | 13.0 | 0.00 | 1.03 | 1.03 | 17 | 1009.4 |
| 20260506021005 | 39 | 45 | 6.0 | 10.0 | 0.00 | 1.03 | 1.03 | 17 | 1009.5 |
| 20260506015005 | 39 | 45 | 5.0 | 13.0 | 0.00 | 1.03 | 1.03 | 17 | 1009.2 |
| 20260506014005 | 39 | 90 | 6.0 | 14.0 | 0.00 | 1.03 | 1.03 | 17 | 1009.3 |
| 20260506013006 | 39 | 90 | 6.0 | 12.0 | 0.00 | 1.03 | 1.03 | 17 | 1009.1 |
| 20260506011006 | 38 | 0 | 4.0 | 10.0 | 0.84 | 1.03 | 1.03 | 17 | 1008.9 |
| 20260506004011 | 39 | 90 | 3.0 | 9.0 | 0.84 | 1.03 | 1.03 | 17 | 1008.9 |
| 20260506003005 | 44 | 90 | 4.0 | 9.0 | 0.84 | 1.03 | 1.03 | 17 | 1007.5 |
| 20260506002005 | 39 | 135 | 4.0 | 7.0 | 0.00 | 1.03 | 1.03 | 17 | 1008.7 |
| 20260505235006 | 39 | 90 | 6.0 | 13.0 | 0.00 | 1.03 | 1.03 | 17 | 1008.3 |
| 20260505234006 | 40 | 0 | 4.0 | 10.0 | 0.00 | 1.03 | 1.03 | 17 | 1008.3 |
| 20260505233006 | 40 | 45 | 3.0 | 10.0 | 0.00 | 1.03 | 1.03 | 17 | 1008.3 |
| 20260505232006 | 40 | 90 | 3.0 | 10.0 | 0.00 | 1.03 | 1.03 | 17 | 1008.3 |
| 20260505225006 | 39 | 45 | 3.0 | 10.0 | 0.00 | 1.03 | 1.03 | 17 | 1008.3 |
| 20260505224006 | 39 | 45 | 3.0 | 7.0 | 0.00 | 1.03 | 1.03 | 17 | 1008.2 |
| 20260505223006 | 39 | 90 | 1.0 | 6.0 | 0.00 | 1.03 | 1.03 | 17 | 1008.1 |
| 20260505222005 | 39 | 135 | 1.0 | 10.0 | 0.00 | 1.03 | 1.03 | 17 | 1008.2 |
| 20260505221006 | 40 | 45 | 3.0 | 10.0 | 0.00 | 1.03 | 1.03 | 17 | 1008.1 |
| 20260505215006 | 41 | 45 | 5.0 | 10.0 | 0.00 | 1.03 | 1.03 | 17 | 1008.2 |
| 20260505214006 | 41 | 90 | 6.0 | 15.0 | 0.00 | 1.03 | 1.03 | 17 | 1008.2 |
| 20260505213005 | 40 | 135 | 5.0 | 10.0 | 0.00 | 1.03 | 1.03 | 17 | 1008.0 |
| 20260505212005 | 39 | 0 | 1.0 | 8.0 | 0.00 | 1.03 | 1.03 | 17 | 1008.1 |
| 20260505205006 | 38 | 90 | 1.0 | 6.0 | 0.00 | 1.03 | 1.03 | 17 | 1007.7 |
| 20260505204006 | 38 | 45 | 1.0 | 5.0 | 0.00 | 1.03 | 1.03 | 17 | 1007.7 |
| 20260505203006 | 38 | 90 | 2.0 | 5.0 | 0.00 | 1.03 | 1.03 | 17 | 1007.7 |
| 20260505202005 | 38 | 45 | 0.0 | 7.0 | 0.00 | 1.03 | 1.03 | 17 | 1007.5 |
| 20260505194006 | 39 | 45 | 1.0 | 5.0 | 0.00 | 1.03 | 1.03 | 17 | 1007.5 |
| 20260505193011 | 38 | 45 | 0.0 | 2.0 | 0.00 | 1.03 | 1.03 | 17 | 1007.3 |
| 20260505192006 | 39 | 225 | 0.0 | 3.0 | 0.00 | 1.03 | 1.03 | 17 | 1007.3 |
| 20260505184006 | 42 | 90 | 0.0 | 3.0 | 0.00 | 1.03 | 1.03 | 17 | 1007.0 |
| 20260505182006 | 44 | 90 | 1.0 | 3.0 | 0.84 | 1.03 | 1.03 | 17 | 1006.9 |
| 20260505181006 | 44 | 90 | 1.0 | 3.0 | 0.84 | 1.03 | 1.03 | 17 | 1006.8 |
| 20260505175005 | 44 | 225 | 1.0 | 7.0 | 0.84 | 1.03 | 1.03 | 17 | 1006.6 |
| 20260505174006 | 45 | 90 | 2.0 | 12.0 | 0.84 | 1.03 | 1.03 | 17 | 1006.4 |
| 20260505173006 | 34 | 270 | 3.0 | 12.0 | 0.84 | 1.03 | 1.03 | 17 | 1007.9 |
| 20260505171007 | 44 | 225 | 3.0 | 10.0 | 0.00 | 1.03 | 1.03 | 17 | 1006.3 |
| 20260505165005 | 47 | 0 | 3.0 | 8.0 | 0.00 | 1.03 | 1.03 | 17 | 1006.4 |
| 20260505163007 | 44 | 45 | 6.0 | 12.0 | 0.00 | 1.03 | 1.03 | 17 | 1006.2 |
| 20260505161006 | 46 | 270 | 3.0 | 10.0 | 0.84 | 1.03 | 1.03 | 17 | 1005.9 |
| 20260505152006 | 49 | 270 | 5.0 | 13.0 | 0.00 | 1.03 | 1.02 | 17 | 1005.7 |
| 20260505151007 | 49 | 180 | 5.0 | 10.0 | 0.00 | 1.03 | 1.02 | 17 | 1005.6 |
| 20260505125006 | 49 | 0 | 6.0 | 15.0 | 0.00 | 1.02 | 1.02 | 17 | 1003.8 |